User: anonymous   Login
Location: Observatorio Las Palmas
(29.0667°N, 110.9333°W)
Time: 15:33:05
(UTC-07:00)
Language:

Skynet4D Del rocket - Orbit

View from above orbital plane
View from above orbital plane
View from above satellite
View from above satellite

Ground track
Ground track

The orbit data is extracted from the following two-line orbital elements,

1 25135U 98002B   17177.26359653 +.00000126 +00000-0 +14631-4 0  9995
2 25135 026.8837 108.3666 0356402 045.3638 115.6403 13.62351012969458
Epoch (UTC): 26 June 2017 06:19:34
Eccentricity: 0.0356402
inclination: 26.8837°
perigee height: 763 km
apogee height: 1291 km
right ascension of ascending node: 108.3666°
argument of perigee: 45.3638°
revolutions per day: 13.62351012
mean anomaly at epoch: 115.6403°
orbit number at epoch: 96945

The dashed part of the orbit path shows where the satellite is in the earth's shadow,  

DLR